This is the latest recevied weather packets stored in our database for station/object KE8RXN. If no packets are shown the sender has not sent any weather packets the latest 10 day(s).
| Time | Temp. | Humidity | Pressure | Rain* | Wind** | Luminosity | Snow |
|---|---|---|---|---|---|---|---|
| 1777303446 | 17.22° C | 63% | 1017.3 hPa | 0 mm | - | 251 W/m² | - |
| 1777303143 | 17.22° C | 64% | 1017.4 hPa | 0 mm | - | 242 W/m² | - |
| 1777302842 | 17.22° C | 64% | 1017.6 hPa | 0 mm | - | 233 W/m² | - |
| 1777302538 | 16.67° C | 65% | 1017.9 hPa | 0 mm | - | 221 W/m² | - |
| 1777302236 | 16.67° C | 65% | 1017.8 hPa | 0 mm | - | 201 W/m² | - |
| 1777301933 | 16.67° C | 66% | 1017.7 hPa | 0 mm | - | 206 W/m² | - |
| 1777301631 | 16.67° C | 65% | 1017.7 hPa | 0 mm | - | 217 W/m² | - |
| 1777301328 | 16.67° C | 65% | 1017.6 hPa | 0 mm | - | 255 W/m² | - |
| 1777301024 | 17.22° C | 65% | 1017.4 hPa | 0 mm | - | 399 W/m² | - |
| 1777300722 | 17.22° C | 65% | 1017.5 hPa | 0 mm | - | 563 W/m² | - |
| 1777300420 | 16.67° C | 66% | 1017.4 hPa | 0 mm | - | 412 W/m² | - |
| 1777300117 | 16.67° C | 67% | 1017.5 hPa | 0 mm | - | 263 W/m² | - |
| 1777299813 | 16.67° C | 67% | 1017.6 hPa | 0 mm | - | 495 W/m² | - |
| 1777299511 | 16.67° C | 66% | 1017.8 hPa | 0 mm | - | 491 W/m² | - |
| 1777299209 | 16.67° C | 66% | 1017.9 hPa | 0 mm | - | 276 W/m² | - |
| 1777298906 | 16.11° C | 68% | 1018.1 hPa | 0 mm | - | 470 W/m² | - |
| 1777298603 | 16.11° C | 67% | 1018.4 hPa | 0 mm | - | 452 W/m² | - |
| 1777298299 | 15.56° C | 69% | 1018.2 hPa | 0 mm | - | 341 W/m² | - |
| 1777297994 | 15.56° C | 68% | 1018.3 hPa | 0 mm | - | 344 W/m² | - |
| 1777297691 | 15° C | 70% | 1018.2 hPa | 0 mm | - | 396 W/m² | - |
| 1777297389 | 14.44° C | 72% | 1018.3 hPa | 0 mm | - | 375 W/m² | - |
| 1777297085 | 13.89° C | 73% | 1018.6 hPa | 0 mm | - | 287 W/m² | - |
| 1777296782 | 13.33° C | 74% | 1019 hPa | 0 mm | - | 223 W/m² | - |
| 1777296477 | 13.33° C | 74% | 1018.8 hPa | 0 mm | - | 221 W/m² | - |
| 1777296174 | 13.33° C | 75% | 1018.9 hPa | 0 mm | - | 243 W/m² | - |
* Rain latest hour (hover to see other rain measurements)
** Current wind speed in m/s (hover to see current wind gust speed)